PILOTS ONLINE: 493    ATC ONLINE: 79

EGDM - MoD Boscombe Down Airport

Location

City Amesbury
Country  United Kingdom
Latitude 51° 9' 7" N
Longitude 1° 44' 50" W
Elevation 407 ft
Type Medium Airport

Runways

05/23 10538 ft / 150 ft
17/35 6278 ft / 150 ft

Weather

METAR
2014/07/30 14:50
EGDM 301450Z 28009KT 9999 FEW041 24/13 Q1016 BLU NOSIG
TAF
2011/02/13 06:09
TAF EGDM 130455Z 1306/1324 17015KT 9999 -RA BKN015 
      TEMPO 1306/1312 17018G28KT 6000 -RADZ BKN010 PROB30 
      TEMPO 1306/1315 3000 RADZ BKN006 
      BECMG 1312/1315 BKN008

Outbound flights

Inbound flights